This is the latest recevied weather packets stored in our database for station/object JH7UAX-10. If no packets are shown the sender has not sent any weather packets the latest 10 day(s).
| Time | Temp. | Humidity | Pressure | Rain* | Wind** | Luminosity | Snow |
|---|---|---|---|---|---|---|---|
| 1788380953 | 21.67° C | 98% | 1022.2 hPa | 1.78 mm | - | - | - |
| 1788379154 | 21.67° C | 98% | 1022.4 hPa | 4.06 mm | - | - | - |
| 1788377356 | 22.22° C | 98% | 1023.2 hPa | 3.3 mm | - | - | - |
| 1788376455 | 22.22° C | 98% | 1023 hPa | 1.78 mm | - | - | - |
| 1788373755 | 22.78° C | 98% | 1022.7 hPa | 2.29 mm | - | - | - |
| 1788372855 | 22.78° C | 98% | 1022.5 hPa | 2.29 mm | - | - | - |
| 1788371954 | 23.33° C | 98% | 1022.6 hPa | 2.03 mm | - | - | - |
| 1788371054 | 22.78° C | 98% | 1022.5 hPa | 1.27 mm | - | - | - |
| 1788370155 | 22.78° C | 99% | 1022.7 hPa | 0 mm | - | - | - |
| 1788369254 | 22.78° C | 98% | 1022.8 hPa | 0 mm | - | - | - |
| 1788367471 | 22.78° C | 98% | 1022.6 hPa | 0 mm | - | - | - |
| 1788366570 | 22.22° C | 98% | 1022.6 hPa | 0 mm | - | - | - |
| 1788365654 | 22.22° C | 98% | 1022.5 hPa | 0 mm | - | - | - |
| 1788364770 | 22.22° C | 98% | 1022.7 hPa | 1.78 mm | - | - | - |
| 1788362954 | 22.22° C | 98% | 1022.6 hPa | 12.45 mm | - | - | - |
| 1788361169 | 22.22° C | 98% | 1023.1 hPa | 25.91 mm | - | - | - |
| 1788359354 | 22.22° C | 97% | 1023.3 hPa | 14.99 mm | - | - | - |
| 1788358455 | 22.78° C | 97% | 1023.8 hPa | 3.3 mm | - | - | - |
| 1788357555 | 22.78° C | 97% | 1023.2 hPa | 0 mm | - | - | - |
| 1788354870 | 22.78° C | 97% | 1023.7 hPa | 3.05 mm | - | - | - |
| 1788353970 | 22.78° C | 97% | 1023.8 hPa | 5.33 mm | - | - | - |
| 1788352154 | 23.33° C | 96% | 1023.8 hPa | 5.08 mm | - | - | - |
| 1788351255 | 23.33° C | 96% | 1024.1 hPa | 2.54 mm | - | - | - |
| 1788349455 | 23.33° C | 96% | 1023.6 hPa | 0 mm | - | - | - |
| 1788348553 | 23.33° C | 95% | 1023.7 hPa | 0 mm | - | - | - |
* Rain latest hour (hover to see other rain measurements)
** Current wind speed in m/s (hover to see current wind gust speed)